Back to catalog

FENGYUN 1C DEB

AlivePO
NORAD 29736·DEBRIS·🇨🇳 China

Launched May 10, 1999 from Taiyuan Satellite Launch Center

Loading…

Next Passes (next 24 hours)

TLE

FreshSource: Space-Track

Epoch: Sep 14, 2026, 08:20 UTC

1 29736U 99025AA  26257.34730266  .00000867  00000-0  19792-2 0  9996
2 29736  99.4375  29.4132 0723509 327.1474  52.1519 12.57783230900090

Track FENGYUN 1C DEB in real time with AllMySat

Download on the App Store